Regional Weather Roundup
Issued by NWS

Home | Current Version | Previous Version | Graphics & Text | Print | Product List | Glossary On
Versions: 1 2 3 4 5 6 7 8 9 10 11 12 13 14 15 16 17 18 19 20 21 22 23 24 25 26 27 28 29 30 31 32 33 34 35 36 37 38 39 40 41 42 43 44 45 46 47 48 49 50
000
ASUS43 KLMK 100210
RWRKY
KENTUCKY REGIONAL WEATHER ROUNDUP
NATIONAL WEATHER SERVICE LOUISVILLE KY
900 PM EST TUE FEB 09 2016

NOTE "FAIR" INDICATES FEW OR NO CLOUDS BELOW 12,000 FEET
WITH NO SIGNIFICANT WEATHER AND/OR OBSTRUCTIONS TO VISIBILITY.

KYZ001>023-026-027-061>063-070>075-100300-
WESTERN AND SOUTH CENTRAL KENTUCKY

CITY           SKY/WX    TMP DP  RH WIND       PRES   REMARKS
PADUCAH        CLOUDY    20  13  74 CALM      30.10S
HENDERSON      CLOUDY    21   9  58 W14G20    30.08S WCI   8
OWENSBORO      LGT SNOW  19  16  86 NW12G20   30.08R WCI   7
HOPKINSVILLE   MOCLDY    21  12  69 NW8       30.09R WCI  11
BOWLING GREEN  CLOUDY    21  13  71 W6G16     30.07R WCI  13
GLASGOW        PTCLDY    20  14  77 W8        30.04R WCI  10
$$

KYZ024-025-028>034-038-045-046-053-100300-
NORTH CENTRAL KENTUCKY

CITY           SKY/WX    TMP DP  RH WIND       PRES   REMARKS
LOUISVILLE/SDF LGT SNOW  21  15  78 W14       30.00S WCI   8
LOUISVILLE/LOU CLOUDY    21  12  68 W10       30.00R WCI  10
FORT KNOX      LGT SNOW  19  16  86 W8        29.98S FOG     WCI   9
$$

KYZ035>037-039>044-047>052-055>060-089>105-100300-
NORTHEAST KENTUCKY

CITY           SKY/WX    TMP DP  RH WIND       PRES   REMARKS
LEXINGTON      LGT SNOW  21  15  78 W12G20    29.93R WCI   9
COVINGTON      CLOUDY    20  13  74 W17       29.90R WCI   5
FRANKFORT      NOT AVBL
$$

KYZ054-064>069-076>088-106>120-100300-
SOUTHEAST KENTUCKY

CITY           SKY/WX    TMP DP  RH WIND       PRES   REMARKS
JACKSON        LGT SNOW  21  14  74 VRB7      29.89R WCI  12
LONDON         CLOUDY    21  14  74 W14       29.94R WCI   8
SOMERSET       FLURRIES  21  16  79 W12G17    30.00R WCI   9
MIDDLESBORO    LGT SNOW  24  18  78 W6        29.94S WCI  16
MONTICELLO     CLOUDY    21  13  71 W15G23    30.00R WCI   8
$$




USA.gov is the U.S. government's official web portal to all federal, state and local government web resources and services.